Starlink 5451

operational
NORAD ID: 54771 Int'l Des: 2022-175 Owner: SPXS Country: US Constellation: starlink
LEOCIRCULAR

关于 Starlink 5451

正在加载描述...

实时位置

正在加载3D地球...

即将过境

高度历史

Altitude vs Time

uPlot chart will show altitude changes over time

两行轨道根数

1 54771U 22175P 26035.71239677 -.00000846 00000-0 -35050-4 0 9996
2 54771 53.2187 186.9618 0001418 102.5508 257.5643 15.08834989175017
Epoch: Feb 4, 2026 • Age: 13 hours

当前状态

高度 542.0 km
速度 7.60 km/s
星下点 35.96°N, 8.56°W
发射日期 Dec 17, 2022
运行时间 3.1 years
类型 internet

技术详情

分类 Payload
质量 305.00 kg
干质量 290.00 kg
总质量 305.00 kg
长度 0.20 m
直径 2.80 m
跨度 9.00 m
形状 Box + pan
制造商 SPXS
平台类型 Starlink
阶段状态 In Orbit
所有者/国家 SPXS/US

大型星座

Loading constellations...